• In Hungary
  • List of Countries
  • For 7 days
  • Water Temperature
  • Satellite Maps
  • Weather Map
  • News
  • Weather Widgets
  • user-avatar
    Login

    Hourly Weather Zarajec

    Today, 11 December, Monday

    Time Temperature Precipitation Wind Pressure Humidity
    00:00 -3°C° 0.1 mm 9 mps 726 mmHg 60%
    01:00 -1°C° 0 mm 5 mps 725 mmHg 67%
    02:00 -2°C° 0 mm 6 mps 725 mmHg 68%
    03:00 -2°C° 0 mm 7 mps 725 mmHg 69%
    04:00 -2°C° 0 mm 8 mps 726 mmHg 70%
    05:00 -2°C° 0 mm 8 mps 726 mmHg 71%
    06:00 -1°C° 0 mm 8 mps 726 mmHg 72%
    07:00 -1°C° 0 mm 8 mps 726 mmHg 73%
    08:00 0°C° 0 mm 8 mps 726 mmHg 72%
    09:00 +1°C° 0 mm 8 mps 726 mmHg 70%
    10:00 +1°C° 0 mm 8 mps 726 mmHg 69%
    11:00 +3°C° 0 mm 7 mps 726 mmHg 70%
    12:00 +4°C° 0 mm 7 mps 726 mmHg 70%
    13:00 +4°C° 0 mm 7 mps 726 mmHg 71%
    14:00 +4°C° 0 mm 7 mps 726 mmHg 74%
    15:00 +4°C° 0 mm 7 mps 726 mmHg 77%
    16:00 +4°C° 0 mm 6 mps 726 mmHg 80%
    17:00 +4°C° 0 mm 6 mps 726 mmHg 79%
    18:00 +4°C° 0 mm 6 mps 725 mmHg 79%
    19:00 +5°C° 0 mm 6 mps 725 mmHg 79%
    20:00 +5°C° 0 mm 7 mps 725 mmHg 78%
    21:00 +6°C° 0 mm 7 mps 726 mmHg 77%
    22:00 +6°C° 0 mm 7 mps 726 mmHg 75%
    23:00 +6°C° 0 mm 8 mps 726 mmHg 75%

    Tomorrow, 12 December, Tuesday

    Time Temperature Precipitation Wind Pressure Humidity
    00:00 +6°C° 0 mm 8 mps 726 mmHg 74%
    01:00 +6°C° 0 mm 8 mps 726 mmHg 74%
    02:00 +6°C° 0 mm 7 mps 726 mmHg 74%
    03:00 +8°C° 0 mm 7 mps 727 mmHg 75%
    04:00 +8°C° 0 mm 6 mps 727 mmHg 75%
    05:00 +7°C° 0 mm 6 mps 727 mmHg 75%
    06:00 +7°C° 0 mm 6 mps 728 mmHg 75%
    07:00 +7°C° 0 mm 6 mps 728 mmHg 75%
    08:00 +8°C° 0 mm 7 mps 729 mmHg 73%
    09:00 +8°C° 0 mm 7 mps 729 mmHg 71%
    10:00 +9°C° 0 mm 8 mps 730 mmHg 69%
    11:00 +9°C° 0 mm 7 mps 730 mmHg 70%
    12:00 +9°C° 0 mm 7 mps 730 mmHg 70%
    13:00 +9°C° 0 mm 7 mps 731 mmHg 71%
    14:00 +9°C° 0 mm 6 mps 731 mmHg 72%
    15:00 +8°C° 0 mm 6 mps 732 mmHg 74%
    16:00 +8°C° 0 mm 5 mps 733 mmHg 76%
    17:00 +7°C° 0 mm 5 mps 733 mmHg 73%
    18:00 +7°C° 0 mm 4 mps 734 mmHg 70%
    19:00 +7°C° 0 mm 4 mps 734 mmHg 66%
    20:00 +6°C° 0.2 mm 4 mps 735 mmHg 67%
    21:00 +5°C° 0.2 mm 4 mps 736 mmHg 68%
    22:00 +5°C° 0.2 mm 4 mps 736 mmHg 68%
    23:00 +4°C° 0.6 mm 4 mps 737 mmHg 69%

    Day after tomorrow, 13 December, Wednesday

    Time Temperature Precipitation Wind Pressure Humidity
    00:00 +4°C° 0.6 mm 4 mps 737 mmHg 70%
    01:00 +3°C° 0.6 mm 4 mps 738 mmHg 71%
    02:00 +3°C° 0.4 mm 4 mps 738 mmHg 71%
    03:00 +3°C° 0.4 mm 4 mps 738 mmHg 71%
    04:00 +1°C° 0.4 mm 4 mps 739 mmHg 71%
    05:00 +2°C° 0 mm 3 mps 739 mmHg 71%
    06:00 +2°C° 0 mm 3 mps 740 mmHg 71%
    07:00 +1°C° 0 mm 3 mps 740 mmHg 72%
    08:00 +1°C° 0 mm 3 mps 741 mmHg 71%
    09:00 0°C° 0 mm 4 mps 741 mmHg 71%
    10:00 0°C° 0 mm 4 mps 741 mmHg 71%
    11:00 +2°C° 0 mm 3 mps 741 mmHg 69%
    12:00 +2°C° 0 mm 3 mps 741 mmHg 67%
    13:00 +2°C° 0 mm 3 mps 741 mmHg 66%
    14:00 +2°C° 0 mm 2 mps 741 mmHg 70%
    15:00 +2°C° 0 mm 2 mps 740 mmHg 73%
    16:00 +1°C° 0 mm 2 mps 740 mmHg 77%
    17:00 +1°C° 0 mm 2 mps 740 mmHg 79%
    18:00 -1°C° 0 mm 2 mps 740 mmHg 81%
    19:00 -1°C° 0 mm 2 mps 739 mmHg 83%
    20:00 -1°C° 0 mm 3 mps 739 mmHg 84%
    21:00 -1°C° 0 mm 3 mps 739 mmHg 84%
    22:00 -1°C° 0 mm 3 mps 738 mmHg 84%
    23:00 -1°C° 0 mm 3 mps 738 mmHg 83%

    14 December, Thursday

    Time Temperature Precipitation Wind Pressure Humidity
    00:00 -2°C° 0 mm 4 mps 737 mmHg 81%
    01:00 -2°C° 0 mm 4 mps 736 mmHg 80%
    02:00 -2°C° 0 mm 4 mps 736 mmHg 80%
    03:00 -2°C° 0 mm 4 mps 735 mmHg 79%
    04:00 -2°C° 0 mm 5 mps 734 mmHg 78%
    05:00 -2°C° 0 mm 5 mps 734 mmHg 75%
    06:00 -1°C° 0 mm 5 mps 733 mmHg 71%
    07:00 -1°C° 0 mm 5 mps 733 mmHg 68%
    08:00 -1°C° 0 mm 6 mps 733 mmHg 67%
    09:00 -1°C° 0 mm 6 mps 732 mmHg 66%
    10:00 +1°C° 0 mm 6 mps 732 mmHg 65%
    11:00 0°C° 0 mm 7 mps 732 mmHg 65%
    12:00 +2°C° 0 mm 7 mps 731 mmHg 66%
    13:00 +2°C° 0 mm 7 mps 731 mmHg 67%
    14:00 +2°C° 0 mm 7 mps 731 mmHg 70%
    15:00 +1°C° 0 mm 6 mps 730 mmHg 73%
    16:00 +1°C° 0 mm 6 mps 730 mmHg 76%
    17:00 +1°C° 0 mm 6 mps 729 mmHg 77%
    18:00 +1°C° 0 mm 6 mps 729 mmHg 78%
    19:00 +1°C° 0 mm 6 mps 729 mmHg 79%
    20:00 +1°C° 0 mm 6 mps 728 mmHg 79%
    21:00 +1°C° 0 mm 5 mps 728 mmHg 80%
    22:00 +1°C° 0 mm 5 mps 727 mmHg 81%
    23:00 +1°C° 0 mm 5 mps 727 mmHg 82%

    15 December, Friday

    Time Temperature Precipitation Wind Pressure Humidity
    00:00 +1°C° 0 mm 6 mps 726 mmHg 83%
    01:00 +1°C° 0 mm 6 mps 725 mmHg 84%
    02:00 +2°C° 0.8 mm 6 mps 725 mmHg 84%
    03:00 +2°C° 0.8 mm 6 mps 726 mmHg 85%
    04:00 +2°C° 0.8 mm 5 mps 726 mmHg 85%
    05:00 +2°C° 0.4 mm 5 mps 726 mmHg 86%
    06:00 +3°C° 0.4 mm 4 mps 727 mmHg 86%
    07:00 +1°C° 0.4 mm 4 mps 727 mmHg 86%
    08:00 +3°C° 0 mm 3 mps 728 mmHg 83%
    09:00 +3°C° 0 mm 3 mps 729 mmHg 81%
    10:00 +3°C° 0 mm 3 mps 730 mmHg 78%
    11:00 +3°C° 0 mm 3 mps 730 mmHg 75%
    12:00 +3°C° 0 mm 3 mps 730 mmHg 73%
    13:00 +4°C° 0 mm 3 mps 730 mmHg 71%
    14:00 +3°C° 0 mm 3 mps 730 mmHg 74%
    15:00 +4°C° 0 mm 2 mps 729 mmHg 77%
    16:00 +3°C° 0 mm 2 mps 729 mmHg 80%
    17:00 +3°C° 0 mm 2 mps 729 mmHg 82%
    18:00 +3°C° 0 mm 2 mps 728 mmHg 83%
    19:00 +3°C° 0 mm 2 mps 728 mmHg 84%
    20:00 +3°C° 0.5 mm 2 mps 728 mmHg 87%
    21:00 +3°C° 0.5 mm 2 mps 727 mmHg 89%
    22:00 +4°C° 0.5 mm 1 mps 726 mmHg 92%
    23:00 +3°C° 0.9 mm 2 mps 726 mmHg 92%

    16 December, Saturday

    Time Temperature Precipitation Wind Pressure Humidity
    00:00 +2°C° 0.9 mm 3 mps 725 mmHg 92%
    01:00 +2°C° 0.9 mm 3 mps 725 mmHg 93%
    02:00 +1°C° 1.6 mm 3 mps 725 mmHg 92%
    03:00 0°C° 1.6 mm 4 mps 725 mmHg 91%
    04:00 0°C° 1.6 mm 4 mps 725 mmHg 90%
    05:00 0°C° 0.3 mm 4 mps 726 mmHg 90%
    06:00 +1°C° 0.3 mm 3 mps 727 mmHg 90%
    07:00 +1°C° 0.3 mm 3 mps 728 mmHg 89%
    08:00 +1°C° 0 mm 3 mps 729 mmHg 88%
    09:00 +1°C° 0 mm 3 mps 730 mmHg 86%
    10:00 +1°C° 0 mm 3 mps 730 mmHg 84%
    11:00 +2°C° 0 mm 3 mps 730 mmHg 82%
    12:00 +2°C° 0 mm 3 mps 731 mmHg 79%
    13:00 +2°C° 0 mm 3 mps 731 mmHg 76%
    14:00 +3°C° 0 mm 2 mps 731 mmHg 79%
    15:00 +2°C° 0 mm 2 mps 732 mmHg 82%
    16:00 +2°C° 0 mm 1 mps 732 mmHg 85%
    17:00 +2°C° 0 mm 1 mps 732 mmHg 87%
    18:00 +1°C° 0 mm 2 mps 733 mmHg 88%
    19:00 -1°C° 0 mm 2 mps 733 mmHg 90%
    20:00 -1°C° 0 mm 2 mps 734 mmHg 91%
    21:00 -1°C° 0 mm 2 mps 734 mmHg 91%
    22:00 -1°C° 0 mm 2 mps 735 mmHg 92%
    23:00 -1°C° 0 mm 2 mps 735 mmHg 92%
    Show more